FW2736 Weather Reports


Display with metric or nautical units.
time (UTC)temp
F
wind
direction
speed
MPH
gust
MPH
rain 1hr
in
rain 24hr
in
rain mn
in
humidity
%
barometer
mb
20260509180942 87 44 6.0 0.0 0.00 0.00 0.00 31 1014.6
20260509180436 88 280 5.0 0.0 0.00 0.00 0.00 32 1014.6
20260509175941 86 142 6.0 0.0 0.00 0.00 0.00 32 1014.9
20260509175438 85 139 6.0 0.0 0.00 0.00 0.00 33 1014.9
20260509174941 85 308 5.0 0.0 0.00 0.00 0.00 36 1014.9
20260509174437 85 42 6.0 0.0 0.00 0.00 0.00 36 1014.9
20260509173942 84 137 6.0 0.0 0.00 0.00 0.00 40 1014.9
20260509173438 84 3 4.0 0.0 0.00 0.00 0.00 40 1014.9
20260509172938 84 76 4.0 0.0 0.00 0.00 0.00 41 1015.2
20260509172437 83 97 4.0 0.0 0.00 0.00 0.00 42 1015.2
20260509171943 83 52 6.0 0.0 0.00 0.00 0.00 43 1015.2
20260509171437 82 358 6.0 0.0 0.00 0.00 0.00 43 1015.2
20260509170941 81 107 5.0 0.0 0.00 0.00 0.00 44 1015.2
20260509170444 81 161 4.0 0.0 0.00 0.00 0.00 45 1015.2
20260509165937 81 97 4.0 0.0 0.00 0.00 0.00 45 1015.2
20260509165437 81 352 3.0 0.0 0.00 0.00 0.00 46 1015.2
20260509164940 80 286 5.0 0.0 0.00 0.00 0.00 47 1015.2
20260509164442 79 109 5.0 0.0 0.00 0.00 0.00 48 1015.2
20260509163940 78 86 5.0 0.0 0.00 0.00 0.00 48 1015.2
20260509163443 78 95 4.0 0.0 0.00 0.00 0.00 48 1015.2
20260509162941 78 107 4.0 0.0 0.00 0.00 0.00 50 1015.2
20260509162439 77 153 4.0 0.0 0.00 0.00 0.00 51 1015.2
20260509161942 76 147 4.0 0.0 0.00 0.00 0.00 52 1015.2
20260509161441 76 274 1.0 0.0 0.00 0.00 0.00 53 1015.2
20260509160937 75 35 1.0 0.0 0.00 0.00 0.00 53 1015.2
20260509160416 75 96 0.0 0.0 0.00 0.00 0.00 54 1015.2
20260509155938 74 61 0.0 0.0 0.00 0.00 0.00 55 1015.2
20260509155436 74 354 0.0 0.0 0.00 0.00 0.00 56 1015.2
20260509154940 73 58 0.0 0.0 0.00 0.00 0.00 57 1015.2
20260509154441 72 347 0.0 0.0 0.00 0.00 0.00 58 1015.2
20260509153938 72 170 0.0 0.0 0.00 0.00 0.00 58 1015.6
20260509153444 72 336 0.0 0.0 0.00 0.00 0.00 59 1015.6
20260509152940 71 48 0.0 0.0 0.00 0.00 0.00 60 1015.6
20260509152420 70 40 0.0 0.0 0.00 0.00 0.00 60 1015.6
20260509151920 70 14 0.0 0.0 0.00 0.00 0.00 62 1015.6
20260509151422 69 88 0.0 0.0 0.00 0.00 0.00 63 1015.6
20260509150921 68 78 0.0 0.0 0.00 0.00 0.00 64 1015.6
20260509150418 68 7 0.0 0.0 0.00 0.00 0.00 64 1015.6
20260509145918 67 352 0.0 0.0 0.00 0.00 0.00 65 1015.6
20260509145419 67 318 0.0 0.0 0.00 0.00 0.00 67 1015.6
20260509144918 67 341 0.0 0.0 0.00 0.00 0.00 67 1015.6
20260509144420 66 176 0.0 0.0 0.00 0.00 0.00 69 1015.6
20260509143918 65 344 0.0 0.0 0.00 0.00 0.00 71 1015.6
20260509143418 64 62 0.0 0.0 0.00 0.00 0.00 73 1015.6
20260509142918 63 40 0.0 0.0 0.00 0.00 0.00 74 1015.6
20260509142417 62 39 0.0 0.0 0.00 0.00 0.00 73 1015.6
20260509141917 63 339 2.0 0.0 0.00 0.00 0.00 73 1015.6
20260509141418 63 354 0.0 0.0 0.00 0.00 0.00 73 1015.6
20260509140917 64 299 0.0 0.0 0.00 0.00 0.00 78 1015.6
20260509140419 63 300 0.0 0.0 0.00 0.00 0.00 81 1015.6
20260509135916 61 321 0.0 0.0 0.00 0.00 0.00 84 1015.6
20260509135417 60 307 0.0 0.0 0.00 0.00 0.00 87 1015.6
20260509134916 59 197 0.0 0.0 0.00 0.00 0.00 88 1015.6
20260509134417 58 302 0.0 0.0 0.00 0.00 0.00 89 1015.2
20260509133915 57 296 0.0 0.0 0.00 0.00 0.00 89 1015.2
20260509133439 55 294 0.0 0.0 0.00 0.00 0.00 90 1015.2
20260509132917 54 234 0.0 0.0 0.00 0.00 0.00 90 1015.2
20260509132414 53 218 0.0 0.0 0.00 0.00 0.00 89 1015.2
20260509131916 52 286 0.0 0.0 0.00 0.00 0.00 89 1015.2
20260509131415 52 287 0.0 0.0 0.00 0.00 0.00 89 1015.2
20260509130915 52 272 0.0 0.0 0.00 0.00 0.00 89 1015.2
20260509130414 52 243 0.0 0.0 0.00 0.00 0.00 89 1015.2
20260509125914 52 292 0.0 0.0 0.00 0.00 0.00 89 1015.2
20260509125416 52 296 0.0 0.0 0.00 0.00 0.00 88 1015.2
20260509124914 52 293 0.0 0.0 0.00 0.00 0.00 88 1015.2
20260509124416 52 284 0.0 0.0 0.00 0.00 0.00 88 1015.2
20260509123936 52 281 0.0 0.0 0.00 0.00 0.00 88 1015.2
20260509123439 53 289 0.0 0.0 0.00 0.00 0.00 88 1015.2
20260509122914 53 291 0.0 0.0 0.00 0.00 0.00 88 1015.2
20260509122440 53 287 0.0 0.0 0.00 0.00 0.00 87 1015.2
20260509121936 53 285 0.0 0.0 0.00 0.00 0.00 87 1014.9
20260509121437 53 231 0.0 0.0 0.00 0.00 0.00 87 1014.9
20260509120939 53 291 0.0 0.0 0.00 0.00 0.00 87 1014.9
20260509120440 53 288 0.0 0.0 0.00 0.00 0.00 87 1014.9
20260509115938 53 309 0.0 0.0 0.00 0.00 0.00 87 1014.9
20260509115437 53 284 0.0 0.0 0.00 0.00 0.00 87 1014.9
20260509114937 54 280 0.0 0.0 0.00 0.00 0.00 87 1014.9
20260509114441 54 282 0.0 0.0 0.00 0.00 0.00 87 1014.9
20260509113939 54 300 0.0 0.0 0.00 0.00 0.00 86 1014.9
20260509113411 54 280 0.0 0.0 0.00 0.00 0.00 86 1014.9
20260509112935 54 258 0.0 0.0 0.00 0.00 0.00 86 1014.9
20260509112439 54 282 0.0 0.0 0.00 0.00 0.00 86 1014.9
20260509111942 54 280 0.0 0.0 0.00 0.00 0.00 86 1014.9
20260509111441 54 289 0.0 0.0 0.00 0.00 0.00 86 1015.2
20260509110915 55 280 0.0 0.0 0.00 0.00 0.00 85 1014.9
20260509110443 55 292 0.0 0.0 0.00 0.00 0.00 86 1014.9
20260509105910 55 280 0.0 0.0 0.00 0.00 0.00 86 1014.9
20260509105439 56 288 0.0 0.0 0.00 0.00 0.00 86 1014.9
20260509104942 55 300 0.0 0.0 0.00 0.00 0.00 86 1014.9
20260509104437 55 283 0.0 0.0 0.00 0.00 0.00 84 1015.2
20260509103912 55 294 0.0 0.0 0.00 0.00 0.00 84 1015.2
20260509103410 56 271 0.0 0.0 0.00 0.00 0.00 84 1015.2
20260509102941 56 290 0.0 0.0 0.00 0.00 0.00 84 1015.2
20260509102437 56 291 0.0 0.0 0.00 0.00 0.00 85 1015.2
20260509101913 56 289 0.0 0.0 0.00 0.00 0.00 85 1015.2
20260509101413 56 305 0.0 0.0 0.00 0.00 0.00 84 1015.2
20260509100941 56 296 0.0 0.0 0.00 0.00 0.00 84 1015.2
20260509100441 56 277 0.0 0.0 0.00 0.00 0.00 84 1015.2
20260509095941 56 285 0.0 0.0 0.00 0.00 0.00 84 1015.2
20260509095435 57 295 0.0 0.0 0.00 0.00 0.00 84 1015.2
20260509094937 56 324 0.0 0.0 0.00 0.00 0.00 83 1015.2
20260509094413 56 289 0.0 0.0 0.00 0.00 0.00 82 1015.2
20260509093939 56 292 0.0 0.0 0.00 0.00 0.00 81 1015.2
20260509093442 56 314 0.0 0.0 0.00 0.00 0.00 80 1015.2
20260509092940 57 302 0.0 0.0 0.00 0.00 0.00 80 1015.2
20260509092413 57 291 0.0 0.0 0.00 0.00 0.00 80 1015.6
20260509091939 57 300 0.0 0.0 0.00 0.00 0.00 80 1015.6
20260509091440 58 290 0.0 0.0 0.00 0.00 0.00 81 1015.6
20260509090942 58 299 0.0 0.0 0.00 0.00 0.00 81 1015.6
20260509090414 58 289 0.0 0.0 0.00 0.00 0.00 82 1015.6
20260509085941 57 287 0.0 0.0 0.00 0.00 0.00 80 1015.6
20260509085414 57 291 0.0 0.0 0.00 0.00 0.00 79 1015.6
20260509084917 57 292 0.0 0.0 0.00 0.00 0.00 79 1015.6
20260509084418 58 281 0.0 0.0 0.00 0.00 0.00 78 1015.9
20260509083915 58 288 0.0 0.0 0.00 0.00 0.00 78 1015.9
20260509083416 59 287 0.0 0.0 0.00 0.00 0.00 78 1015.9
20260509082914 59 286 0.0 0.0 0.00 0.00 0.00 79 1015.9
20260509082414 59 290 0.0 0.0 0.00 0.00 0.00 79 1015.9
20260509081916 59 305 0.0 0.0 0.00 0.00 0.00 77 1015.9
20260509081415 59 277 0.0 0.0 0.00 0.00 0.00 77 1015.9
20260509080915 59 298 0.0 0.0 0.00 0.00 0.00 76 1016.3
20260509080436 59 306 0.0 0.0 0.00 0.00 0.00 75 1016.3
20260509075914 60 292 0.0 0.0 0.00 0.00 0.00 74 1016.3
20260509075413 60 299 4.0 0.0 0.00 0.00 0.00 75 1016.3
20260509074938 60 291 0.0 0.0 0.00 0.00 0.00 75 1016.3
20260509074413 60 278 0.0 0.0 0.00 0.00 0.00 75 1016.3
20260509073915 60 308 0.0 0.0 0.00 0.00 0.00 73 1016.3
20260509073413 61 245 0.0 0.0 0.00 0.00 0.00 72 1016.3
20260509072916 61 169 0.0 0.0 0.00 0.00 0.00 71 1016.3
20260509072415 62 301 0.0 0.0 0.00 0.00 0.00 71 1016.3
20260509071913 62 302 0.0 0.0 0.00 0.00 0.00 70 1016.3
20260509071413 63 303 0.0 0.0 0.00 0.00 0.00 70 1016.3
20260509070914 63 307 0.0 0.0 0.00 0.00 0.00 69 1016.3
20260509070415 63 339 0.0 0.0 0.00 0.00 0.00 69 1016.3
20260509065914 64 264 0.0 0.0 0.00 0.00 0.00 68 1016.3
20260509065439 64 245 0.0 0.0 0.00 0.00 0.00 69 1016.3
20260509064913 64 254 0.0 0.0 0.00 0.00 0.00 68 1016.3
20260509064439 64 254 0.0 0.0 0.00 0.00 0.00 69 1016.3
20260509063914 64 255 0.0 0.0 0.00 0.00 0.00 70 1016.3
20260509063438 63 258 0.0 0.0 0.00 0.00 0.00 68 1016.3
20260509062938 64 278 0.0 0.0 0.00 0.00 0.00 68 1016.3
20260509062412 64 305 2.0 0.0 0.00 0.00 0.00 68 1016.3
20260509061912 64 315 6.0 0.0 0.00 0.00 0.00 68 1016.6
20260509061414 64 287 6.0 0.0 0.00 0.00 0.00 69 1016.3
20260509060910 64 309 0.0 0.0 0.00 0.00 0.00 67 1016.3
20260509060415 65 288 0.0 0.0 0.00 0.00 0.00 67 1016.3
20260509055914 65 278 0.0 0.0 0.00 0.00 0.00 66 1016.3
20260509055411 65 93 0.0 0.0 0.00 0.00 0.00 66 1016.3
20260509054911 65 245 0.0 0.0 0.00 0.00 0.00 67 1016.3
20260509054412 65 245 0.0 0.0 0.00 0.00 0.00 67 1016.3
20260509053912 65 305 0.0 0.0 0.00 0.00 0.00 67 1016.3
20260509053414 65 308 0.0 0.0 0.00 0.00 0.00 67 1016.3
20260509052910 65 309 0.0 0.0 0.00 0.00 0.00 65 1016.3
20260509052410 65 294 0.0 0.0 0.00 0.00 0.00 64 1016.3
20260509051911 66 281 0.0 0.0 0.00 0.00 0.00 63 1016.3
20260509051413 67 322 0.0 0.0 0.00 0.00 0.00 63 1016.3
20260509050913 67 291 0.0 0.0 0.00 0.00 0.00 63 1016.3
20260509050410 68 283 0.0 0.0 0.00 0.00 0.00 61 1016.3
20260509045911 68 337 0.0 0.0 0.00 0.00 0.00 59 1016.3
20260509045414 69 241 2.0 0.0 0.00 0.00 0.00 60 1016.3
20260509044912 68 226 4.0 0.0 0.00 0.00 0.00 60 1016.3
20260509044412 68 270 4.0 0.0 0.00 0.00 0.00 59 1016.3
20260509043913 68 248 5.0 0.0 0.00 0.00 0.00 59 1016.3
20260509043413 69 243 6.0 0.0 0.00 0.00 0.00 59 1016.3
20260509042914 69 271 7.0 0.0 0.00 0.00 0.00 58 1016.3
20260509042415 69 313 7.0 0.0 0.00 0.00 0.00 58 1016.3
20260509041912 69 198 5.0 0.0 0.00 0.00 0.00 58 1016.3
20260509041412 69 262 5.0 0.0 0.00 0.00 0.00 58 1015.9
20260509040912 69 139 5.0 0.0 0.00 0.00 0.00 58 1015.9
20260509040413 69 314 3.0 0.0 0.00 0.00 0.00 58 1015.9
20260509035912 69 310 7.0 0.0 0.00 0.00 0.00 58 1015.9
20260509035412 69 21 5.0 0.0 0.00 0.00 0.00 58 1015.6
20260509034912 69 324 3.0 0.0 0.00 0.00 0.00 58 1015.6
20260509034413 70 237 5.0 0.0 0.00 0.00 0.00 58 1015.6
20260509033915 70 159 5.0 0.0 0.00 0.00 0.00 59 1015.6
20260509033411 70 279 5.0 0.0 0.00 0.00 0.00 58 1015.6
20260509032914 71 271 3.0 0.0 0.00 0.00 0.00 58 1015.6
20260509032413 71 280 6.0 0.0 0.00 0.00 0.00 58 1015.6
20260509031928 71 53 6.0 0.0 0.00 0.00 0.00 58 1015.2
20260509031429 71 260 6.0 0.0 0.00 0.00 0.00 57 1015.2
20260509030926 72 261 5.0 0.0 0.00 0.00 0.00 57 1015.2
20260509030427 72 187 5.0 0.0 0.00 0.00 0.00 56 1015.2
20260509025926 72 125 5.0 0.0 0.00 0.00 0.00 56 1015.2
20260509025428 73 115 8.0 0.0 0.00 0.00 0.00 56 1015.2
20260509024928 73 155 7.0 0.0 0.00 0.00 0.00 55 1015.2
20260509024428 74 108 9.0 0.0 0.00 0.00 0.00 54 1014.9
20260509023925 74 119 9.0 0.0 0.00 0.00 0.00 54 1014.9
20260509023428 75 107 9.0 0.0 0.00 0.00 0.00 53 1014.9
20260509022927 76 103 9.0 0.0 0.00 0.00 0.00 52 1014.9
20260509022427 77 201 10.0 0.0 0.00 0.00 0.00 50 1014.6
20260509021924 78 152 6.0 0.0 0.00 0.00 0.00 48 1014.6
20260509021426 79 160 6.0 0.0 0.00 0.00 0.00 47 1014.6
20260509020927 79 76 4.0 0.0 0.00 0.00 0.00 45 1014.2
20260509020424 80 355 8.0 0.0 0.00 0.00 0.00 44 1014.2
20260509015924 80 90 8.0 0.0 0.00 0.00 0.00 44 1014.2
20260509015423 80 328 8.0 0.0 0.00 0.00 0.00 44 1014.2
20260509014926 81 342 4.0 0.0 0.00 0.00 0.00 42 1014.2
20260509014425 81 304 5.0 0.0 0.00 0.00 0.00 42 1013.9
20260509013923 81 265 8.0 0.0 0.00 0.00 0.00 42 1013.9
20260509013427 82 301 8.0 0.0 0.00 0.00 0.00 42 1013.9
20260509012924 82 297 7.0 0.0 0.00 0.00 0.00 41 1013.9
20260509012425 83 340 6.0 0.0 0.00 0.00 0.00 41 1013.9
20260509011925 83 33 7.0 0.0 0.00 0.00 0.00 40 1013.9
20260509011424 84 257 8.0 0.0 0.00 0.00 0.00 40 1013.9
20260509010923 85 191 11.0 0.0 0.00 0.00 0.00 39 1013.9
20260509010423 86 265 7.0 0.0 0.00 0.00 0.00 38 1013.9
20260509005925 86 2 7.0 0.0 0.00 0.00 0.00 38 1013.9
20260509005423 87 342 7.0 0.0 0.00 0.00 0.00 37 1013.9
20260509004923 87 354 7.0 0.0 0.00 0.00 0.00 36 1013.9
20260509004422 87 324 7.0 0.0 0.00 0.00 0.00 35 1013.9
20260509003923 88 338 5.0 0.0 0.00 0.00 0.00 35 1013.9
20260509003424 87 253 10.0 0.0 0.00 0.00 0.00 35 1013.9
20260509002923 88 318 10.0 0.0 0.00 0.00 0.00 34 1013.9
20260509002423 88 284 8.0 0.0 0.00 0.00 0.00 33 1013.9
20260509001923 89 349 8.0 0.0 0.00 0.00 0.00 32 1013.9
20260509001423 89 352 9.0 0.0 0.00 0.00 0.00 32 1013.9
20260509000922 89 314 9.0 0.0 0.00 0.00 0.00 32 1013.9
20260509000425 90 340 9.0 0.0 0.00 0.00 0.00 31 1013.9
20260508235926 89 236 10.0 0.0 0.00 0.00 0.00 31 1013.9
20260508235423 89 319 14.0 0.0 0.00 0.00 0.00 31 1013.9
20260508234921 90 4 11.0 0.0 0.00 0.00 0.00 30 1013.9
20260508234421 90 297 12.0 0.0 0.00 0.00 0.00 28 1013.9
20260508233920 90 314 15.0 0.0 0.00 0.00 0.00 28 1013.9
20260508233420 90 315 15.0 0.0 0.00 0.00 0.00 28 1013.9
20260508232919 90 300 12.0 0.0 0.00 0.00 0.00 28 1013.9
20260508232420 91 310 12.0 0.0 0.00 0.00 0.00 27 1013.9
20260508231921 92 328 9.0 0.0 0.00 0.00 0.00 28 1013.9
20260508231419 91 25 14.0 0.0 0.00 0.00 0.00 28 1013.9
20260508230920 90 288 15.0 0.0 0.00 0.00 0.00 29 1013.9
20260508230419 90 332 15.0 0.0 0.00 0.00 0.00 29 1013.9
20260508225921 91 294 10.0 0.0 0.00 0.00 0.00 28 1013.9
20260508225418 91 315 12.0 0.0 0.00 0.00 0.00 30 1013.9
20260508224918 91 331 13.0 0.0 0.00 0.00 0.00 30 1014.2
20260508224418 91 328 15.0 0.0 0.00 0.00 0.00 30 1014.2
20260508223917 91 326 15.0 0.0 0.00 0.00 0.00 30 1014.2
20260508223416 91 314 12.0 0.0 0.00 0.00 0.00 29 1014.2
20260508222916 92 349 13.0 0.0 0.00 0.00 0.00 29 1014.2
20260508222418 92 0 10.0 0.0 0.00 0.00 0.00 29 1014.2
20260508221917 92 345 11.0 0.0 0.00 0.00 0.00 29 1014.2
20260508221418 92 345 15.0 0.0 0.00 0.00 0.00 28 1014.2
20260508220842 92 312 15.0 0.0 0.00 0.00 0.00 28 1014.6
20260508220417 92 319 9.0 0.0 0.00 0.00 0.00 29 1014.6
20260508215916 92 343 13.0 0.0 0.00 0.00 0.00 30 1014.6
20260508215416 92 306 12.0 0.0 0.00 0.00 0.00 30 1014.6
20260508214917 93 29 10.0 0.0 0.00 0.00 0.00 29 1014.6
20260508214417 92 311 13.0 0.0 0.00 0.00 0.00 30 1014.6
20260508213917 92 299 12.0 0.0 0.00 0.00 0.00 30 1014.9
20260508213416 92 317 12.0 0.0 0.00 0.00 0.00 29 1014.9
20260508212915 94 87 9.0 0.0 0.00 0.00 0.00 28 1014.9
20260508212416 93 303 10.0 0.0 0.00 0.00 0.00 28 1014.9
20260508211915 91 334 10.0 0.0 0.00 0.00 0.00 29 1014.9
20260508211343 91 20 13.0 0.0 0.00 0.00 0.00 29 1014.9
20260508210915 92 9 11.0 0.0 0.00 0.00 0.00 29 1014.9
20260508210415 92 288 7.0 0.0 0.00 0.00 0.00 28 1015.2
20260508205916 93 340 7.0 0.0 0.00 0.00 0.00 27 1015.2
20260508205416 92 335 8.0 0.0 0.00 0.00 0.00 29 1015.2
20260508204913 90 137 10.0 0.0 0.00 0.00 0.00 30 1015.6
20260508204418 90 82 10.0 0.0 0.00 0.00 0.00 31 1015.6
20260508203914 91 45 7.0 0.0 0.00 0.00 0.00 30 1015.6
20260508203415 91 191 7.0 0.0 0.00 0.00 0.00 30 1015.6
20260508202913 91 72 7.0 0.0 0.00 0.00 0.00 29 1015.6
20260508202414 91 139 4.0 0.0 0.00 0.00 0.00 30 1015.9
20260508201913 91 311 4.0 0.0 0.00 0.00 0.00 30 1015.9
20260508201413 90 343 7.0 0.0 0.00 0.00 0.00 32 1015.9
20260508200915 89 327 6.0 0.0 0.00 0.00 0.00 34 1015.9
20260508200414 89 89 7.0 0.0 0.00 0.00 0.00 35 1015.9
20260508195916 89 158 7.0 0.0 0.00 0.00 0.00 35 1016.3
20260508195411 89 123 6.0 0.0 0.00 0.00 0.00 35 1016.3
20260508194913 89 190 5.0 0.0 0.00 0.00 0.00 37 1016.3
20260508194414 88 325 6.0 0.0 0.00 0.00 0.00 39 1016.3
20260508193912 87 72 7.0 0.0 0.00 0.00 0.00 39 1016.6
20260508193412 86 17 7.0 0.0 0.00 0.00 0.00 41 1016.6
20260508192912 87 14 6.0 0.0 0.00 0.00 0.00 40 1016.6
20260508192411 86 51 5.0 0.0 0.00 0.00 0.00 40 1016.6
20260508191913 86 75 5.0 0.0 0.00 0.00 0.00 41 1016.9
20260508191413 86 111 5.0 0.0 0.00 0.00 0.00 42 1016.9
20260508190915 85 352 6.0 0.0 0.00 0.00 0.00 42 1016.9
20260508190411 85 345 5.0 0.0 0.00 0.00 0.00 42 1016.9
20260508185912 85 82 5.0 0.0 0.00 0.00 0.00 42 1016.9
20260508185414 85 110 7.0 0.0 0.00 0.00 0.00 42 1016.9
20260508184911 84 55 7.0 0.0 0.00 0.00 0.00 42 1016.9
20260508184412 84 92 7.0 0.0 0.00 0.00 0.00 43 1016.9
20260508183912 84 224 5.0 0.0 0.00 0.00 0.00 44 1017.3
20260508183412 82 16 5.0 0.0 0.00 0.00 0.00 45 1017.3
20260508182914 81 62 6.0 0.0 0.00 0.00 0.00 45 1017.3
20260508182412 82 49 4.0 0.0 0.00 0.00 0.00 45 1017.3
20260508181914 82 136 6.0 0.0 0.00 0.00 0.00 45 1017.3
20260508181412 81 248 6.0 0.0 0.00 0.00 0.00 46 1017.3